| time (UTC) | temp F | wind direction | speed MPH | gust MPH | rain 1hr in | rain 24hr in | rain mn in | humidity % | barometer mb |
| 20260831115016 | 73 | 78 | 0.0 | 1.0 | 0.00 | 0.00 | 0.00 | 90 | 1018.9 |
| 20260831114016 | 73 | 83 | 0.0 | 2.0 | 0.00 | 0.00 | 0.00 | 90 | 1018.8 |
| 20260831113016 | 73 | 80 | 0.0 | 0.0 | 0.00 | 0.00 | 0.00 | 91 | 1018.9 |
| 20260831112016 | 73 | 76 | 0.0 | 1.0 | 0.00 | 0.00 | 0.00 | 91 | 1018.7 |
| 20260831111016 | 73 | 114 | 0.0 | 1.0 | 0.00 | 0.00 | 0.00 | 91 | 1018.7 |
| 20260831110016 | 73 | 85 | 0.0 | 2.0 | 0.00 | 0.00 | 0.00 | 91 | 1018.7 |
| 20260831105017 | 73 | 79 | 0.0 | 1.0 | 0.00 | 0.00 | 0.00 | 91 | 1018.7 |
| 20260831104037 | 73 | 161 | 0.0 | 2.0 | 0.00 | 0.00 | 0.00 | 91 | 1018.7 |
| 20260831103017 | 73 | 91 | 0.0 | 1.0 | 0.00 | 0.00 | 0.00 | 92 | 1018.6 |
| 20260831102017 | 73 | 82 | 0.0 | 1.0 | 0.00 | 0.00 | 0.00 | 92 | 1018.6 |
| 20260831101017 | 73 | 76 | 0.0 | 1.0 | 0.00 | 0.00 | 0.00 | 92 | 1018.5 |
| 20260831100017 | 73 | 86 | 0.0 | 1.0 | 0.00 | 0.00 | 0.00 | 91 | 1018.5 |
| 20260831095017 | 73 | 154 | 0.0 | 1.0 | 0.00 | 0.00 | 0.00 | 91 | 1018.6 |
| 20260831094018 | 73 | 212 | 0.0 | 2.0 | 0.00 | 0.00 | 0.00 | 91 | 1018.6 |
| 20260831093018 | 73 | 223 | 0.0 | 2.0 | 0.00 | 0.00 | 0.00 | 91 | 1018.6 |
| 20260831092018 | 73 | 70 | 0.0 | 0.0 | 0.00 | 0.00 | 0.00 | 90 | 1018.5 |
| 20260831091015 | 74 | 72 | 0.0 | 2.0 | 0.00 | 0.00 | 0.00 | 90 | 1018.5 |
| 20260831090015 | 74 | 91 | 0.0 | 1.0 | 0.00 | 0.00 | 0.00 | 89 | 1018.6 |
| 20260831085015 | 74 | 108 | 0.0 | 1.0 | 0.00 | 0.00 | 0.00 | 88 | 1018.5 |
| 20260831084015 | 74 | 0.0 | 0.0 | 0.00 | 0.00 | 0.00 | 88 | 1018.5 | |
| 20260831083036 | 74 | 0.0 | 0.0 | 0.00 | 0.00 | 0.00 | 88 | 1018.4 | |
| 20260831082016 | 73 | 75 | 0.0 | 1.0 | 0.00 | 0.00 | 0.00 | 89 | 1018.3 |
| 20260831081016 | 73 | 0.0 | 0.0 | 0.00 | 0.00 | 0.00 | 89 | 1018.2 | |
| 20260831080017 | 73 | 57 | 0.0 | 0.0 | 0.00 | 0.00 | 0.00 | 88 | 1018.3 |
| 20260831075017 | 73 | 0.0 | 0.0 | 0.00 | 0.00 | 0.00 | 88 | 1018.3 | |
| 20260831074017 | 73 | 0.0 | 0.0 | 0.00 | 0.00 | 0.00 | 88 | 1018.3 | |
| 20260831073017 | 73 | 0.0 | 0.0 | 0.00 | 0.00 | 0.00 | 89 | 1018.3 | |
| 20260831072017 | 73 | 0.0 | 0.0 | 0.00 | 0.00 | 0.00 | 89 | 1018.3 | |
| 20260831071037 | 73 | 64 | 0.0 | 1.0 | 0.00 | 0.00 | 0.00 | 90 | 1018.5 |
| 20260831070017 | 73 | 71 | 0.0 | 1.0 | 0.00 | 0.00 | 0.00 | 90 | 1018.5 |
| 20260831065018 | 73 | 64 | 0.0 | 1.0 | 0.00 | 0.00 | 0.00 | 89 | 1018.7 |
| 20260831064018 | 73 | 88 | 0.0 | 1.0 | 0.00 | 0.00 | 0.00 | 90 | 1018.7 |
| 20260831063018 | 73 | 59 | 0.0 | 0.0 | 0.00 | 0.00 | 0.00 | 89 | 1018.7 |
| 20260831062018 | 73 | 67 | 0.0 | 1.0 | 0.00 | 0.00 | 0.00 | 89 | 1018.7 |
| 20260831061015 | 73 | 30 | 0.0 | 1.0 | 0.00 | 0.00 | 0.00 | 89 | 1018.7 |
| 20260831060015 | 73 | 5 | 0.0 | 1.0 | 0.00 | 0.00 | 0.00 | 88 | 1018.8 |
| 20260831055015 | 73 | 93 | 0.0 | 1.0 | 0.00 | 0.00 | 0.00 | 88 | 1018.9 |
| 20260831054016 | 73 | 64 | 0.0 | 1.0 | 0.00 | 0.00 | 0.00 | 87 | 1018.9 |
| 20260831053016 | 73 | 65 | 0.0 | 1.0 | 0.00 | 0.00 | 0.00 | 87 | 1019.0 |
| 20260831052016 | 73 | 350 | 0.0 | 1.0 | 0.00 | 0.00 | 0.00 | 87 | 1019.0 |
| 20260831051016 | 73 | 50 | 0.0 | 1.0 | 0.00 | 0.00 | 0.00 | 86 | 1019.0 |
| 20260831050016 | 73 | 89 | 0.0 | 1.0 | 0.00 | 0.00 | 0.00 | 85 | 1019.0 |
| 20260831045016 | 74 | 0.0 | 0.0 | 0.00 | 0.00 | 0.00 | 85 | 1019.1 | |
| 20260831044017 | 74 | 158 | 0.0 | 0.0 | 0.00 | 0.00 | 0.00 | 85 | 1019.1 |
| 20260831043017 | 73 | 15 | 0.0 | 1.0 | 0.00 | 0.00 | 0.00 | 85 | 1019.1 |
| 20260831042017 | 73 | 56 | 0.0 | 1.0 | 0.00 | 0.00 | 0.00 | 85 | 1019.1 |
| 20260831041017 | 73 | 66 | 0.0 | 1.0 | 0.00 | 0.00 | 0.00 | 85 | 1019.1 |
| 20260831040037 | 73 | 52 | 0.0 | 0.0 | 0.00 | 0.00 | 0.00 | 85 | 1019.1 |
| 20260831035018 | 73 | 23 | 0.0 | 1.0 | 0.00 | 0.00 | 0.00 | 85 | 1019.1 |
| 20260831034038 | 73 | 73 | 0.0 | 1.0 | 0.00 | 0.00 | 0.00 | 84 | 1019.1 |
| 20260831033018 | 73 | 60 | 0.0 | 0.0 | 0.00 | 0.00 | 0.00 | 83 | 1019.2 |
| 20260831032018 | 74 | 16 | 0.0 | 0.0 | 0.00 | 0.00 | 0.00 | 83 | 1019.1 |
| 20260831031015 | 74 | 271 | 0.0 | 1.0 | 0.00 | 0.00 | 0.00 | 82 | 1019.1 |
| 20260831030015 | 74 | 262 | 0.0 | 1.0 | 0.00 | 0.00 | 0.00 | 81 | 1019.0 |
| 20260831025016 | 74 | 13 | 0.0 | 1.0 | 0.00 | 0.00 | 0.00 | 81 | 1019.1 |
| 20260831024016 | 75 | 50 | 0.0 | 1.0 | 0.00 | 0.00 | 0.00 | 80 | 1019.1 |
| 20260831023016 | 75 | 98 | 0.0 | 0.0 | 0.00 | 0.00 | 0.00 | 79 | 1019.2 |
| 20260831022036 | 75 | 0.0 | 0.0 | 0.00 | 0.00 | 0.00 | 79 | 1019.3 | |
| 20260831021016 | 76 | 65 | 0.0 | 1.0 | 0.00 | 0.00 | 0.00 | 77 | 1019.3 |
| 20260831020056 | 76 | 50 | 0.0 | 1.0 | 0.00 | 0.00 | 0.00 | 76 | 1019.3 |
| 20260831015017 | 76 | 273 | 0.0 | 1.0 | 0.00 | 0.00 | 0.00 | 76 | 1019.3 |
| 20260831014017 | 77 | 297 | 0.0 | 0.0 | 0.00 | 0.00 | 0.00 | 75 | 1019.4 |
| 20260831013017 | 78 | 0.0 | 0.0 | 0.00 | 0.00 | 0.00 | 73 | 1019.3 | |
| 20260831012017 | 79 | 0.0 | 0.0 | 0.00 | 0.00 | 0.00 | 71 | 1019.2 | |
| 20260831011017 | 79 | 0.0 | 0.0 | 0.00 | 0.00 | 0.00 | 70 | 1019.2 | |
| 20260831010017 | 80 | 0.0 | 0.0 | 0.00 | 0.00 | 0.00 | 68 | 1019.1 | |
| 20260831005017 | 80 | 281 | 0.0 | 1.0 | 0.00 | 0.00 | 0.00 | 67 | 1019.0 |
| 20260831004058 | 81 | 282 | 0.0 | 1.0 | 0.00 | 0.00 | 0.00 | 66 | 1019.0 |
| 20260831003018 | 81 | 0.0 | 0.0 | 0.00 | 0.00 | 0.00 | 66 | 1018.8 | |
| 20260831002015 | 81 | 265 | 0.0 | 2.0 | 0.00 | 0.00 | 0.00 | 65 | 1018.8 |
| 20260831001015 | 82 | 0.0 | 0.0 | 0.00 | 0.00 | 0.00 | 64 | 1018.6 | |
| 20260831000016 | 82 | 237 | 0.0 | 2.0 | 0.00 | 0.00 | 0.00 | 64 | 1018.5 |
| 20260830235035 | 83 | 225 | 0.0 | 1.0 | 0.00 | 0.00 | 0.00 | 62 | 1018.3 |
| 20260830234036 | 83 | 186 | 0.0 | 2.0 | 0.00 | 0.00 | 0.00 | 62 | 1018.2 |
| 20260830233016 | 83 | 0.0 | 0.0 | 0.00 | 0.00 | 0.00 | 61 | 1018.1 | |
| 20260830232016 | 84 | 185 | 0.0 | 2.0 | 0.00 | 0.00 | 0.00 | 60 | 1018.0 |
| 20260830231016 | 84 | 69 | 0.0 | 3.0 | 0.00 | 0.00 | 0.00 | 59 | 1018.0 |
| 20260830230016 | 85 | 200 | 0.0 | 2.0 | 0.00 | 0.00 | 0.00 | 58 | 1017.9 |
| 20260830225017 | 85 | 214 | 0.0 | 2.0 | 0.00 | 0.00 | 0.00 | 57 | 1018.0 |
| 20260830224017 | 85 | 184 | 0.0 | 3.0 | 0.00 | 0.00 | 0.00 | 57 | 1018.0 |
| 20260830223018 | 85 | 204 | 0.0 | 3.0 | 0.00 | 0.00 | 0.00 | 57 | 1017.8 |
| 20260830222017 | 85 | 205 | 0.0 | 3.0 | 0.00 | 0.00 | 0.00 | 56 | 1017.8 |
| 20260830221017 | 85 | 172 | 1.0 | 2.0 | 0.00 | 0.00 | 0.00 | 56 | 1017.8 |
| 20260830220018 | 85 | 217 | 1.0 | 3.0 | 0.00 | 0.00 | 0.00 | 54 | 1017.8 |
| 20260830215018 | 86 | 134 | 0.0 | 2.0 | 0.00 | 0.00 | 0.00 | 54 | 1017.6 |
| 20260830214018 | 86 | 225 | 1.0 | 5.0 | 0.00 | 0.00 | 0.00 | 53 | 1017.6 |
| 20260830213035 | 85 | 151 | 0.0 | 3.0 | 0.00 | 0.00 | 0.00 | 55 | 1017.5 |
| 20260830212038 | 85 | 85 | 0.0 | 4.0 | 0.00 | 0.00 | 0.00 | 56 | 1017.3 |
| 20260830211015 | 85 | 91 | 1.0 | 3.0 | 0.00 | 0.00 | 0.00 | 57 | 1017.2 |
| 20260830210015 | 84 | 110 | 0.0 | 2.0 | 0.00 | 0.00 | 0.00 | 58 | 1017.2 |
| 20260830205016 | 85 | 111 | 0.0 | 3.0 | 0.00 | 0.00 | 0.00 | 59 | 1017.2 |
| 20260830204015 | 85 | 216 | 1.0 | 4.0 | 0.00 | 0.00 | 0.00 | 59 | 1017.4 |
| 20260830203016 | 84 | 220 | 0.0 | 2.0 | 0.00 | 0.00 | 0.00 | 59 | 1017.6 |
| 20260830202016 | 83 | 77 | 0.0 | 3.0 | 0.00 | 0.00 | 0.00 | 63 | 1017.8 |
| 20260830201017 | 84 | 110 | 1.0 | 2.0 | 0.00 | 0.00 | 0.00 | 63 | 1018.1 |
| 20260830200017 | 84 | 249 | 0.0 | 2.0 | 0.00 | 0.00 | 0.00 | 61 | 1018.3 |
| 20260830195017 | 85 | 274 | 1.0 | 5.0 | 0.00 | 0.00 | 0.00 | 61 | 1019.2 |
| 20260830194017 | 86 | 279 | 0.0 | 2.0 | 0.00 | 0.00 | 0.00 | 60 | 1019.5 |
| 20260830193057 | 86 | 300 | 0.0 | 3.0 | 0.00 | 0.00 | 0.00 | 59 | 1019.8 |
| 20260830192017 | 85 | 301 | 1.0 | 3.0 | 0.00 | 0.00 | 0.00 | 62 | 1020.0 |
| 20260830191017 | 85 | 285 | 1.0 | 7.0 | 0.00 | 0.00 | 0.00 | 61 | 1020.0 |
| 20260830190018 | 86 | 289 | 2.0 | 9.0 | 0.00 | 0.00 | 0.00 | 58 | 1020.2 |
| 20260830185017 | 85 | 286 | 1.0 | 4.0 | 0.00 | 0.00 | 0.00 | 60 | 1020.2 |
| 20260830184018 | 85 | 285 | 2.0 | 5.0 | 0.00 | 0.00 | 0.00 | 58 | 1020.3 |
| 20260830183018 | 86 | 284 | 2.0 | 6.0 | 0.00 | 0.00 | 0.00 | 57 | 1020.4 |
| 20260830182058 | 86 | 291 | 1.0 | 6.0 | 0.00 | 0.00 | 0.00 | 56 | 1020.4 |
| 20260830181016 | 86 | 286 | 1.0 | 6.0 | 0.00 | 0.00 | 0.00 | 57 | 1020.5 |
| 20260830180016 | 86 | 270 | 2.0 | 5.0 | 0.00 | 0.00 | 0.00 | 58 | 1020.5 |
| 20260830175016 | 86 | 287 | 3.0 | 8.0 | 0.00 | 0.00 | 0.00 | 58 | 1020.5 |
| 20260830174016 | 85 | 286 | 1.0 | 6.0 | 0.00 | 0.00 | 0.00 | 60 | 1020.6 |
| 20260830173016 | 85 | 287 | 2.0 | 9.0 | 0.00 | 0.00 | 0.00 | 62 | 1020.7 |
| 20260830172016 | 84 | 279 | 1.0 | 4.0 | 0.00 | 0.00 | 0.00 | 65 | 1020.8 |
| 20260830171016 | 85 | 262 | 0.0 | 2.0 | 0.00 | 0.00 | 0.00 | 65 | 1020.9 |
| 20260830170017 | 85 | 277 | 1.0 | 6.0 | 0.00 | 0.00 | 0.00 | 64 | 1021.0 |
| 20260830165017 | 84 | 271 | 1.0 | 3.0 | 0.00 | 0.00 | 0.00 | 64 | 1021.1 |
| 20260830164017 | 83 | 287 | 2.0 | 7.0 | 0.00 | 0.00 | 0.00 | 64 | 1021.1 |
| 20260830163018 | 83 | 284 | 1.0 | 7.0 | 0.00 | 0.00 | 0.00 | 64 | 1021.3 |
| 20260830162037 | 84 | 297 | 1.0 | 5.0 | 0.00 | 0.00 | 0.00 | 64 | 1021.3 |
| 20260830161017 | 84 | 242 | 0.0 | 2.0 | 0.00 | 0.00 | 0.00 | 64 | 1021.2 |
| 20260830160017 | 84 | 244 | 1.0 | 2.0 | 0.00 | 0.00 | 0.00 | 64 | 1021.0 |
| 20260830155017 | 83 | 229 | 1.0 | 3.0 | 0.00 | 0.00 | 0.00 | 63 | 1021.0 |
| 20260830154038 | 83 | 225 | 1.0 | 3.0 | 0.00 | 0.00 | 0.00 | 64 | 1020.9 |
| 20260830153018 | 83 | 206 | 1.0 | 5.0 | 0.00 | 0.00 | 0.00 | 63 | 1020.6 |
| 20260830152015 | 83 | 226 | 1.0 | 3.0 | 0.00 | 0.00 | 0.00 | 63 | 1020.5 |
| 20260830151035 | 83 | 212 | 1.0 | 4.0 | 0.00 | 0.00 | 0.00 | 63 | 1020.4 |
| 20260830150015 | 81 | 223 | 1.0 | 4.0 | 0.00 | 0.00 | 0.00 | 66 | 1020.2 |
| 20260830145016 | 80 | 220 | 1.0 | 3.0 | 0.00 | 0.00 | 0.00 | 68 | 1020.3 |
| 20260830144016 | 78 | 273 | 1.0 | 5.0 | 0.00 | 0.00 | 0.00 | 69 | 1020.3 |
| 20260830143017 | 77 | 235 | 1.0 | 3.0 | 0.00 | 0.00 | 0.00 | 72 | 1020.1 |
| 20260830142016 | 76 | 218 | 0.0 | 2.0 | 0.00 | 0.00 | 0.00 | 73 | 1020.1 |
| 20260830141016 | 76 | 212 | 0.0 | 3.0 | 0.00 | 0.00 | 0.00 | 73 | 1020.0 |
| 20260830140037 | 76 | 83 | 0.0 | 3.0 | 0.00 | 0.00 | 0.00 | 74 | 1019.8 |
| 20260830135017 | 75 | 91 | 1.0 | 3.0 | 0.00 | 0.00 | 0.00 | 74 | 1020.0 |
| 20260830134037 | 74 | 81 | 0.0 | 2.0 | 0.00 | 0.00 | 0.00 | 74 | 1020.1 |
| 20260830133017 | 74 | 222 | 0.0 | 2.0 | 0.00 | 0.00 | 0.00 | 75 | 1020.2 |
| 20260830132037 | 73 | 92 | 0.0 | 2.0 | 0.00 | 0.00 | 0.00 | 77 | 1020.2 |
| 20260830131017 | 72 | 62 | 0.0 | 2.0 | 0.00 | 0.00 | 0.00 | 78 | 1020.1 |
| 20260830130017 | 73 | 82 | 1.0 | 3.0 | 0.00 | 0.00 | 0.00 | 78 | 1020.2 |
| 20260830125018 | 72 | 70 | 0.0 | 2.0 | 0.00 | 0.00 | 0.00 | 80 | 1020.3 |
| 20260830124018 | 70 | 74 | 0.0 | 2.0 | 0.00 | 0.00 | 0.00 | 86 | 1020.3 |
| 20260830123018 | 69 | 80 | 0.0 | 2.0 | 0.00 | 0.00 | 0.00 | 88 | 1020.3 |
| 20260830122019 | 69 | 77 | 0.0 | 2.0 | 0.00 | 0.00 | 0.00 | 89 | 1020.2 |
| 20260830121035 | 69 | 65 | 0.0 | 1.0 | 0.00 | 0.00 | 0.00 | 89 | 1020.3 |
| 20260830120015 | 68 | 62 | 0.0 | 2.0 | 0.00 | 0.00 | 0.00 | 90 | 1020.4 |